Home   Weather   Koszalin   Past weeks

Flag for Poland Past Weather in Koszalin, Poland — Yesterday and Last 2 Weeks

Now
52 °F

Scattered clouds.


Feels Like: 52 °F
Forecast: 35 / 56 °F
Wind: 2 mph from East

Location: Koszalin

Current Time: Apr 30, 2017 at 2:50:59 pm

Latest Report: Apr 30, 2017 at 2:00 pm


Visibility: 22 mi

Pressure: 30.25 "Hg

Humidity: 50%

Dew Point: 33 °F

Location of KoszalinLocation

Past Weather in Koszalin — Graph

°F

Koszalin Temperature Yesterday

Maximum temperature yesterday: 48 °F (at 12:00 pm)
Minimum temperature yesterday: 36 °F (at 11:00 pm)
Average temperature yesterday: 42 °F

High & Low Weather Summary for the Past Weeks

 TemperatureHumidityPressure
High53 °F (Apr 21, 3:00 pm)97% (Apr 30, 2:00 am)30.58 "Hg (Apr 30, 2:00 am)
Low27 °F (Apr 20, 3:00 am)38% (Apr 28, 1:00 pm)29.58 "Hg (Apr 25, 10:00 am)
Average41 °F74%30.02 "Hg
* Reported Apr 15 1:00 pm — Apr 30 1:00 pm, Koszalin, Weather by CustomWeather, © 2017

Note: Actual official high and low records may vary slightly from our data, if they occured in-between our weather recording intervals... More about our weather records

Advertising

Koszalin Weather History for the Previous 24 Hours

Scroll right to see more
 ConditionsComfort  
Time TempWeatherWind HumidityBarometerVisibility
1:00 pm
Sun, Apr 30
47 °FScattered clouds.5 mph65%30.26 "Hg22 mi
12:00 pm46 °FPassing clouds.3 mph68%30.27 "Hg25 mi
11:00 am48 °FPassing clouds.3 mph48%30.27 "Hg22 mi
10:00 am46 °FPassing clouds.2 mph60%30.27 "Hg25 mi
9:00 am42 °FSunny.1 mph78%30.26 "Hg13 mi
8:00 am38 °FSunny.1 mph91%30.26 "Hg9 mi
7:00 am34 °FSunny.1 mph95%30.26 "Hg6 mi
6:00 am31 °FFog.1 mph96%30.24 "Hg3 mi
5:00 am31 °FFog.1 mph96%30.22 "Hg2 mi
4:00 am32 °FFog.1 mph96%30.21 "Hg2 mi
3:00 am33 °FFog.1 mph97%30.19 "Hg3 mi
2:00 am33 °FFog.1 mph97%30.18 "Hg5 mi
1:00 am33 °FFog.1 mph95%30.16 "Hg3 mi
12:00 am35 °FClear.No wind93%30.15 "Hg7 mi
11:00 pm
Sat, Apr 29
36 °FClear.1 mph91%30.14 "Hg12 mi
10:00 pm39 °FPassing clouds.1 mph86%30.13 "Hg22 mi
9:00 pm40 °FPassing clouds.2 mph83%30.11 "Hg25 mi
8:00 pm43 °FOvercast.3 mph77%30.09 "Hg28 mi
7:00 pm44 °FOvercast.3 mph84%30.06 "Hg19 mi
6:00 pm44 °FOvercast.3 mph84%30.04 "Hg16 mi
5:00 pm44 °FSprinkles. Overcast.3 mph84%30.03 "Hg16 mi
4:00 pm43 °FSprinkles. Overcast.2 mph90%30.03 "Hg14 mi
3:00 pm42 °FSprinkles. Overcast.3 mph88%30.02 "Hg9 mi
2:00 pm43 °FSprinkles. Overcast.6 mph82%30.00 "Hg25 mi
Weather by CustomWeather, © 2017

See weather overviewHow to use our weather pages